User: anonymous   Login
Location: Unspecified
(0.0000°N, 0.0000°E)
Time: 07:15:34
(UTC+00:00)
Language:

SSETI-EXPRESS - Orbit

View from above orbital plane
View from above orbital plane
View from above satellite
View from above satellite

Ground track
Ground track

The orbit data is extracted from the following two-line orbital elements,

1 28894U 05043E   17178.86446380 +.00000036 +00000-0 +16181-4 0  9996
2 28894 097.8822 335.3914 0018333 122.3717 237.9262 14.61450479621425
Epoch (UTC): 27 June 2017 20:44:49
Eccentricity: 0.0018333
inclination: 97.8822°
perigee height: 675 km
apogee height: 701 km
right ascension of ascending node: 335.3914°
argument of perigee: 122.3717°
revolutions per day: 14.61450479
mean anomaly at epoch: 237.9262°
orbit number at epoch: 62142

The dashed part of the orbit path shows where the satellite is in the earth's shadow,  

DLR